| time (UTC) | temp C | wind direction | speed KPH | gust KPH | rain 1hr cm | rain 24hr cm | rain mn cm | humidity % | barometer mb |
| 20260507020059 | 17 | 44 | 0.0 | 3.2 | 0.00 | 0.00 | 0.00 | 61 | 1012.8 |
| 20260507014556 | 17 | 38 | 1.6 | 8.0 | 0.00 | 0.00 | 0.00 | 62 | 1012.8 |
| 20260507013101 | 17 | 47 | 1.6 | 16.1 | 0.00 | 0.00 | 0.00 | 63 | 1012.2 |
| 20260507011544 | 17 | 38 | 0.0 | 8.0 | 0.00 | 0.00 | 0.00 | 63 | 1012.3 |
| 20260507010052 | 17 | 46 | 0.0 | 9.7 | 0.00 | 0.00 | 0.00 | 64 | 1012.0 |
| 20260507004535 | 17 | 10 | 1.6 | 11.3 | 0.00 | 0.00 | 0.00 | 64 | 1011.8 |
| 20260507003031 | 17 | 30 | 3.2 | 17.7 | 0.00 | 0.00 | 0.00 | 65 | 1011.7 |
| 20260507001530 | 17 | 42 | 1.6 | 14.5 | 0.00 | 0.00 | 0.00 | 65 | 1011.6 |
| 20260507000022 | 17 | 35 | 3.2 | 16.1 | 0.00 | 0.00 | 0.00 | 66 | 1011.4 |
| 20260506234522 | 17 | 38 | 6.4 | 19.3 | 0.00 | 0.00 | 0.00 | 66 | 1011.3 |
| 20260506233014 | 17 | 17 | 6.4 | 20.9 | 0.00 | 0.00 | 0.00 | 67 | 1011.0 |
| 20260506231507 | 17 | 319 | 3.2 | 14.5 | 0.00 | 0.00 | 0.00 | 67 | 1011.0 |
| 20260506230003 | 18 | 22 | 3.2 | 12.9 | 0.00 | 0.00 | 0.00 | 68 | 1011.1 |
| 20260506224559 | 18 | 18 | 4.8 | 16.1 | 0.00 | 0.00 | 0.00 | 68 | 1010.9 |
| 20260506223054 | 18 | 36 | 3.2 | 17.7 | 0.00 | 0.00 | 0.00 | 69 | 1010.8 |
| 20260506221555 | 19 | 30 | 3.2 | 17.7 | 0.00 | 0.00 | 0.00 | 69 | 1010.7 |
| 20260506220044 | 20 | 319 | 1.6 | 14.5 | 0.00 | 0.00 | 0.00 | 69 | 1010.8 |
| 20260506214540 | 21 | 259 | 3.2 | 9.7 | 0.00 | 0.00 | 0.00 | 68 | 1010.7 |
| 20260506213036 | 21 | 318 | 3.2 | 17.7 | 0.00 | 0.00 | 0.00 | 68 | 1010.3 |
| 20260506211531 | 21 | 61 | 6.4 | 19.3 | 0.00 | 0.00 | 0.00 | 68 | 1010.4 |
| 20260506210033 | 22 | 335 | 3.2 | 25.7 | 0.00 | 0.00 | 0.00 | 68 | 1010.2 |
| 20260506204524 | 23 | 312 | 3.2 | 17.7 | 0.00 | 0.00 | 0.00 | 67 | 1010.4 |
| 20260506203021 | 22 | 290 | 6.4 | 14.5 | 0.00 | 0.00 | 0.00 | 67 | 1010.5 |
| 20260506201524 | 22 | 297 | 4.8 | 17.7 | 0.00 | 0.00 | 0.00 | 67 | 1010.5 |
| 20260506200033 | 22 | 296 | 3.2 | 20.9 | 0.00 | 0.00 | 0.00 | 66 | 1010.2 |
| 20260506194513 | 23 | 321 | 3.2 | 12.9 | 0.00 | 0.00 | 0.00 | 67 | 1010.0 |
| 20260506193008 | 25 | 40 | 8.0 | 19.3 | 0.00 | 0.00 | 0.00 | 66 | 1009.8 |
| 20260506191504 | 25 | 332 | 6.4 | 12.9 | 0.00 | 0.00 | 0.00 | 65 | 1009.9 |
| 20260506190100 | 25 | 30 | 1.6 | 9.7 | 0.00 | 0.00 | 0.00 | 64 | 1010.2 |
| 20260506184607 | 24 | 38 | 3.2 | 11.3 | 0.00 | 0.00 | 0.00 | 62 | 1010.1 |
| 20260506183052 | 23 | 44 | 1.6 | 8.0 | 0.00 | 0.00 | 0.00 | 59 | 1010.3 |
| 20260506181547 | 22 | 46 | 1.6 | 8.0 | 0.00 | 0.00 | 0.00 | 51 | 1010.4 |
| 20260506180044 | 22 | 90 | 3.2 | 11.3 | 0.00 | 0.00 | 0.00 | 43 | 1010.3 |
| 20260506174541 | 21 | 39 | 3.2 | 8.0 | 0.00 | 0.00 | 0.00 | 25 | 1010.4 |
| 20260506173044 | 20 | 24 | 0.0 | 14.5 | 0.00 | 0.00 | 0.00 | 8 | 1010.5 |
| 20260506171547 | 19 | 74 | 0.0 | 9.7 | 0.00 | 0.00 | 0.00 | 5 | 1010.7 |
| 20260506170037 | 18 | 67 | 1.6 | 12.9 | 0.00 | 0.00 | 0.00 | 6 | 1010.8 |
| 20260506164539 | 18 | 39 | 3.2 | 12.9 | 0.00 | 0.00 | 0.00 | 9 | 1010.9 |
| 20260506163028 | 18 | 24 | 4.8 | 22.5 | 0.00 | 0.00 | 0.00 | 20 | 1011.6 |
| 20260506161526 | 20 | 5 | 9.7 | 25.7 | 0.00 | 0.00 | 0.00 | 31 | 1011.8 |
| 20260506160019 | 24 | 287 | 3.2 | 14.5 | 0.00 | 0.00 | 0.00 | 11 | 1011.0 |
| 20260506154516 | 25 | 113 | 0.0 | 0.0 | 0.00 | 0.00 | 0.00 | 10 | 1010.8 |
| 20260506153010 | 25 | 113 | 0.0 | 0.0 | 0.00 | 0.00 | 0.00 | 13 | 1010.4 |
| 20260506151507 | 25 | 115 | 0.0 | 0.0 | 0.00 | 0.00 | 0.00 | 15 | 1010.1 |
| 20260506150002 | 25 | 113 | 0.0 | 8.0 | 0.00 | 0.00 | 0.00 | 12 | 1009.8 |
| 20260506144556 | 24 | 178 | 0.0 | 8.0 | 0.00 | 0.00 | 0.00 | 11 | 1009.4 |
| 20260506143052 | 24 | 163 | 0.0 | 8.0 | 0.00 | 0.00 | 0.00 | 8 | 1009.0 |
| 20260506141605 | 24 | 183 | 0.0 | 3.2 | 0.00 | 0.00 | 0.00 | 6 | 1009.0 |
| 20260506140044 | 24 | 113 | 0.0 | 0.0 | 0.00 | 0.00 | 0.00 | 6 | 1009.3 |
| 20260506134540 | 24 | 162 | 0.0 | 0.0 | 0.00 | 0.00 | 0.00 | 4 | 1008.5 |
| 20260506133036 | 24 | 177 | 0.0 | 4.8 | 0.00 | 0.00 | 0.00 | 3 | 1008.5 |
| 20260506131536 | 23 | 180 | 1.6 | 9.7 | 0.00 | 0.00 | 0.00 | 3 | 1008.4 |
| 20260506130029 | -17 | 0.0 | 0.0 | 0.00 | 0.00 | 0.00 | 1008.2 | ||
| 20260506124528 | -17 | 0.0 | 0.0 | 0.00 | 0.00 | 0.00 | 1008.1 | ||
| 20260506123031 | -17 | 0.0 | 0.0 | 0.00 | 0.00 | 0.00 | 1008.1 | ||
| 20260506121520 | -17 | 0.0 | 0.0 | 0.00 | 0.00 | 0.00 | 1008.2 | ||
| 20260506120015 | -17 | 0.0 | 0.0 | 0.00 | 0.00 | 0.00 | 1008.1 | ||
| 20260506114511 | -17 | 0.0 | 0.0 | 0.00 | 0.00 | 0.00 | 1008.1 | ||
| 20260506113008 | 23 | 196 | 0.0 | 4.8 | 0.00 | 0.00 | 0.00 | 4 | 1008.1 |
| 20260506111502 | 23 | 207 | 0.0 | 0.0 | 0.00 | 0.00 | 0.00 | 4 | 1008.1 |
| 20260506110058 | 23 | 207 | 0.0 | 0.0 | 0.00 | 0.00 | 0.00 | 4 | 1008.0 |
| 20260506104553 | 23 | 207 | 0.0 | 1.6 | 0.00 | 0.00 | 0.00 | 3 | 1007.8 |
| 20260506103052 | 23 | 207 | 0.0 | 1.6 | 0.00 | 0.00 | 0.00 | 3 | 1007.6 |
| 20260506101548 | 23 | 218 | 0.0 | 6.4 | 0.00 | 0.00 | 0.00 | 3 | 1007.4 |
| 20260506100045 | 23 | 219 | 0.0 | 9.7 | 0.00 | 0.00 | 0.00 | 2 | 1007.3 |
| 20260506094548 | 23 | 179 | 0.0 | 11.3 | 0.00 | 0.00 | 0.00 | 2 | 1007.3 |
| 20260506093046 | 23 | 208 | 0.0 | 9.7 | 0.00 | 0.00 | 0.00 | 3 | 1007.0 |
| 20260506091536 | 23 | 223 | 1.6 | 11.3 | 0.00 | 0.00 | 0.00 | 4 | 1006.9 |
| 20260506090033 | 23 | 182 | 1.6 | 12.9 | 0.00 | 0.00 | 0.00 | 5 | 1006.9 |
| 20260506084533 | 23 | 200 | 0.0 | 6.4 | 0.00 | 0.00 | 0.00 | 7 | 1006.8 |
| 20260506083031 | 23 | 215 | 3.2 | 9.7 | 0.00 | 0.00 | 0.00 | 8 | 1006.8 |
| 20260506081529 | 24 | 182 | 3.2 | 12.9 | 0.00 | 0.00 | 0.00 | 10 | 1006.9 |
| 20260506073024 | 24 | 203 | 3.2 | 9.7 | 0.00 | 0.00 | 0.00 | 14 | 1007.2 |
| 20260506071525 | 24 | 202 | 1.6 | 11.3 | 0.00 | 0.00 | 0.00 | 15 | 1007.5 |
| 20260506061529 | 24 | 204 | 1.6 | 12.9 | 0.00 | 0.00 | 0.00 | 19 | 1007.6 |
| 20260506044517 | 25 | 173 | 3.2 | 11.3 | 0.00 | 0.00 | 0.00 | 24 | 1007.5 |
| 20260506043014 | 25 | 199 | 3.2 | 11.3 | 0.00 | 0.00 | 0.00 | 26 | 1007.5 |
| 20260506041508 | 25 | 173 | 3.2 | 11.3 | 0.00 | 0.00 | 0.00 | 28 | 1007.3 |
| 20260506040008 | 25 | 197 | 1.6 | 14.5 | 0.00 | 0.00 | 0.00 | 30 | 1007.1 |
| 20260506034507 | 25 | 182 | 1.6 | 16.1 | 0.00 | 0.00 | 0.00 | 33 | 1007.0 |
| 20260506033007 | 25 | 172 | 4.8 | 14.5 | 0.00 | 0.00 | 0.00 | 36 | 1006.7 |
| 20260506031513 | 25 | 180 | 3.2 | 12.9 | 0.00 | 0.00 | 0.00 | 37 | 1006.6 |
| 20260506030007 | 25 | 209 | 3.2 | 14.5 | 0.00 | 0.00 | 0.00 | 42 | 1006.4 |
| 20260506024505 | 26 | 169 | 4.8 | 24.1 | 0.00 | 0.00 | 0.00 | 47 | 1006.1 |
| 20260506023005 | 26 | 190 | 8.0 | 16.1 | 0.00 | 0.00 | 0.00 | 53 | 1005.9 |
| 20260506021503 | 26 | 163 | 4.8 | 16.1 | 0.00 | 0.00 | 0.00 | 58 | 1005.4 |